DB0GIS-11 Weather Reports


time (UTC)temp
C
wind
direction
speed
KPH
gust
KPH
rain 1hr
cm
rain 24hr
cm
rain mn
cm
humidity
%
barometer
mb
20260509172718 18 0.0 0.0 0.00 0.00 0.00 58 1011.7
20260509171725 18 0.0 0.0 0.00 0.00 0.00 57 1011.7
20260509165739 18 0.0 0.0 0.00 0.00 0.00 58 1011.8
20260509164724 18 0.0 0.0 0.00 0.00 0.00 59 1011.8
20260509163747 18 0.0 0.0 0.00 0.00 0.00 59 1012.0
20260509162721 18 0.0 0.0 0.00 0.00 0.00 58 1012.1
20260509161737 18 0.0 0.0 0.00 0.00 0.00 58 1012.2
20260509160733 18 0.0 0.0 0.00 0.00 0.00 57 1012.2
20260509155734 18 0.0 0.0 0.00 0.00 0.00 57 1012.2
20260509153717 18 55 3.2 9.7 0.00 0.00 0.00 58 1012.4
20260509152737 18 0.0 0.0 0.00 0.00 0.00 58 1012.5
20260509151724 18 0.0 0.0 0.00 0.00 0.00 58 1012.7
20260509150726 18 0.0 0.0 0.00 0.00 0.00 58 1012.8
20260509145721 18 0.0 0.0 0.00 0.00 0.00 58 1012.6
20260509144716 18 270 0.0 1.6 0.00 0.00 0.00 59 1012.8
20260509143724 18 0.0 0.0 0.00 0.00 0.00 58 1012.8
20260509142724 18 0.0 0.0 0.00 0.00 0.00 58 1013.0
20260509141739 18 0.0 0.0 0.00 0.00 0.00 58 1013.1
20260509140718 18 0.0 0.0 0.00 0.00 0.00 58 1013.2
20260509135752 18 0.0 0.0 0.00 0.00 0.00 59 1013.4
20260509134715 18 0.0 0.0 0.00 0.00 0.00 59 1013.5
20260509133719 18 0.0 0.0 0.00 0.00 0.00 59 1013.6
20260509131741 17 0.0 0.0 0.00 0.00 0.00 61 1014.0
20260509130718 17 0.0 0.0 0.00 0.00 0.00 61 1014.2
20260509125723 17 45 3.2 11.3 0.00 0.00 0.00 62 1014.2
20260509124756 17 0.0 0.0 0.00 0.00 0.00 61 1014.4
20260509123718 17 0.0 0.0 0.00 0.00 0.00 61 1014.5
20260509122722 17 0.0 0.0 0.00 0.00 0.00 62 1014.7
20260509121724 16 0.0 0.0 0.00 0.00 0.00 63 1014.9
20260509120729 16 0.0 0.0 0.00 0.00 0.00 63 1015.0
20260509113724 16 0.0 0.0 0.00 0.00 0.00 62 1015.3
20260509112718 16 90 0.0 1.6 0.00 0.00 0.00 62 1015.5
20260509111743 16 0.0 0.0 0.00 0.00 0.00 63 1015.6
20260509110715 16 0.0 0.0 0.00 0.00 0.00 61 1015.5
20260509105733 16 0.0 0.0 0.00 0.00 0.00 58 1015.7
20260509104732 16 0.0 0.0 0.00 0.00 0.00 57 1015.8
20260509103727 15 0.0 0.0 0.00 0.00 0.00 55 1015.9
20260509102721 15 68 0.0 3.2 0.00 0.00 0.00 50 1015.9
20260509101734 15 0.0 0.0 0.00 0.00 0.00 47 1015.9
20260509100729 15 0.0 0.0 0.00 0.00 0.00 40 1016.2
20260509095716 14 338 0.0 3.2 0.00 0.00 0.00 37 1016.2
20260509094742 14 0.0 0.0 0.00 0.00 0.00 31 1016.3
20260509093755 13 293 1.6 6.4 0.00 0.00 0.00 29 1016.4
20260509092715 13 293 0.0 1.6 0.00 0.00 0.00 27 1016.3
20260509091722 13 293 1.6 6.4 0.00 0.00 0.00 17 1016.5
20260509090750 12 0.0 0.0 0.00 0.00 0.00 10 1016.3
20260509085723 12 315 1.6 3.2 0.00 0.00 0.00 10 1016.4
20260509083730 11 315 0.0 4.8 0.00 0.00 0.00 10 1016.5
20260509082815 11 315 1.6 6.4 0.00 0.00 0.00 10 1016.5
20260509081725 11 315 0.0 3.2 0.00 0.00 0.00 10 1016.5
20260509080735 11 315 0.0 4.8 0.00 0.00 0.00 10 1016.5
20260509075717 11 315 3.2 6.4 0.00 0.00 0.00 10 1016.5
20260509074758 10 315 0.0 3.2 0.00 0.00 0.00 10 1016.4
20260509073725 10 0.0 0.0 0.00 0.00 0.00 10 1016.3
20260509072721 10 315 0.0 1.6 0.00 0.00 0.00 10 1016.3
20260509071759 10 315 0.0 1.6 0.00 0.00 0.00 10 1016.3
20260509070719 10 338 0.0 1.6 0.00 0.00 0.00 10 1016.5
20260509065740 9 0.0 0.0 0.00 0.00 0.00 10 1016.5
20260509064726 9 0.0 0.0 0.00 0.00 0.00 10 1016.4
20260509063744 9 0 0.0 1.6 0.00 0.00 0.00 10 1016.2
20260509062754 9 0.0 0.0 0.00 0.00 0.00 10 1016.1
20260509060757 8 0.0 0.0 0.00 0.00 0.00 10 1016.0
20260509055729 8 0.0 0.0 0.00 0.00 0.00 10 1016.0
20260509054722 8 0.0 0.0 0.00 0.00 0.00 10 1016.3
20260509053731 8 0.0 0.0 0.00 0.00 0.00 10 1016.2
20260509052724 8 0.0 0.0 0.00 0.00 0.00 10 1016.0
20260509051721 8 0.0 0.0 0.00 0.00 0.00 10 1016.1
20260509050726 8 0.0 0.0 0.00 0.00 0.00 10 1015.9
20260509045726 7 0.0 0.0 0.00 0.00 0.00 10 1015.9
20260509044727 7 0.0 0.0 0.00 0.00 0.00 10 1015.8
20260509043741 6 0.0 0.0 0.00 0.00 0.00 10 1015.7
20260509042716 6 0.0 0.0 0.00 0.00 0.00 10 1015.6
20260509040812 6 0.0 0.0 0.00 0.00 0.00 10 1015.7
20260509035759 6 0.0 0.0 0.00 0.00 0.00 10 1015.6
20260509034739 6 0.0 0.0 0.00 0.00 0.00 10 1015.6
20260509033734 6 0.0 0.0 0.00 0.00 0.00 10 1015.6
20260509032718 6 0.0 0.0 0.00 0.00 0.00 10 1015.6
20260509031739 6 0.0 0.0 0.00 0.00 0.00 10 1015.6
20260509030828 6 0.0 0.0 0.00 0.00 0.00 10 1015.6
20260509025742 6 0.0 0.0 0.00 0.00 0.00 10 1015.7
20260509024724 6 0.0 0.0 0.00 0.00 0.00 10 1015.8
20260509023738 6 0.0 0.0 0.00 0.00 0.00 10 1016.0
20260509022715 6 0.0 0.0 0.00 0.00 0.00 10 1015.8
20260509021722 6 0.0 0.0 0.00 0.00 0.00 10 1015.9
20260509020802 7 0.0 0.0 0.00 0.00 0.00 10 1015.7
20260509015726 7 0.0 0.0 0.00 0.00 0.00 10 1015.7
20260509014747 7 0.0 0.0 0.00 0.00 0.00 10 1015.6
20260509013729 7 0.0 0.0 0.00 0.00 0.00 10 1015.6
20260509012725 7 0.0 0.0 0.00 0.00 0.00 10 1015.6
20260509011729 7 0.0 0.0 0.00 0.00 0.00 10 1015.9
20260509010800 7 0.0 0.0 0.00 0.00 0.00 10 1015.9
20260509005732 7 0.0 0.0 0.00 0.00 0.00 10 1015.9
20260509004808 7 0.0 0.0 0.00 0.00 0.00 10 1015.9
20260509003808 7 0.0 0.0 0.00 0.00 0.00 10 1015.9
20260509002724 7 0.0 0.0 0.00 0.00 0.00 10 1015.8
20260509001719 7 0.0 0.0 0.00 0.00 0.00 10 1015.8
20260508235722 8 0.0 0.0 0.00 0.00 0.00 10 1015.7
20260508233724 8 0.0 0.0 0.00 0.00 0.00 16 1015.8
20260508232725 8 0.0 0.0 0.00 0.00 0.00 23 1015.9
20260508225722 8 0.0 0.0 0.00 0.00 0.00 27 1015.8
20260508224728 8 0.0 0.0 0.00 0.00 0.00 31 1015.8
20260508223720 8 0.0 0.0 0.00 0.00 0.00 35 1015.8
20260508222731 9 0.0 0.0 0.00 0.00 0.00 35 1015.6
20260508221726 9 0.0 0.0 0.00 0.00 0.00 37 1015.7
20260508220729 10 0.0 0.0 0.00 0.00 0.00 37 1015.6
20260508215718 10 0.0 0.0 0.00 0.00 0.00 37 1015.7
20260508214722 10 0.0 0.0 0.00 0.00 0.00 38 1015.6
20260508213741 10 0.0 0.0 0.00 0.00 0.00 38 1015.6
20260508212734 10 0.0 0.0 0.00 0.00 0.00 40 1015.6
20260508211723 10 68 0.0 3.2 0.00 0.00 0.00 42 1015.4
20260508210723 10 0.0 0.0 0.00 0.00 0.00 44 1015.2
20260508205807 10 45 0.0 1.6 0.00 0.00 0.00 45 1015.2
20260508204720 10 0.0 0.0 0.00 0.00 0.00 47 1015.2
20260508203738 10 45 1.6 4.8 0.00 0.00 0.00 49 1015.1
20260508202716 11 0.0 0.0 0.00 0.00 0.00 50 1015.2
20260508201725 11 0.0 0.0 0.00 0.00 0.00 52 1015.0
20260508200723 11 45 0.0 1.6 0.00 0.00 0.00 53 1015.3
20260508195717 11 0.0 0.0 0.00 0.00 0.00 55 1015.1
20260508194724 11 45 1.6 8.0 0.00 0.00 0.00 56 1015.0
20260508193809 11 45 1.6 6.4 0.00 0.00 0.00 58 1014.9
20260508191735 12 0.0 0.0 0.00 0.00 0.00 59 1014.6
20260508190718 12 0.0 0.0 0.00 0.00 0.00 60 1014.6
20260508185728 12 0.0 0.0 0.00 0.00 0.00 61 1014.5
20260508184718 12 0.0 0.0 0.00 0.00 0.00 62 1014.4
20260508183724 13 0.0 0.0 0.00 0.00 0.00 63 1014.3
20260508182739 13 0.0 0.0 0.00 0.00 0.00 63 1014.2
20260508181726 13 0.0 0.0 0.00 0.00 0.00 63 1014.2
20260508180721 13 0.0 0.0 0.00 0.00 0.00 63 1014.1
20260508175744 14 0.0 0.0 0.00 0.00 0.00 63 1014.0
20260508174717 14 0.0 0.0 0.00 0.00 0.00 64 1014.0
20260508173726 15 0.0 0.0 0.00 0.00 0.00 63 1014.0